Theta_e
316 313 315 317 318 320 322 319 316 319 320 312 315 316 313 315 318 314 312 311 311 310 312 312 313 314 314 314 316 316 317 320 319 321 319 317 318 316 315 316 318 320 323 327 334
315 315 313 317 317 318 322 319 318 318 317 318 314 316 316 314 314 314 317 311 310 310 313 312 312 313 313 315 314 314 318 319 318 317 317 316 316 315 314 316 318 324 331 333 334
316 315 313 315 317 318 320 321 319 314 315 318 313 314 313 312 313 315 320 315 317 311 311 312 313 314 314 314 315 314 318 317 317 315 315 316 315 314 311 315 316 324 331 332 333
316 315 314 314 317 317 319 320 321 318 314 317 316 315 314 314 323 318 319 321 317 314 311 312 313 314 314 314 315 316 316 315 316 315 316 316 314 314 313 314 312 320 330 331 331
317 315 314 313 316 317 318 319 320 321 320 318 318 316 314 314 314 313 315 321 323 319 312 312 313 313 314 314 314 314 315 315 314 314 315 315 315 315 314 312 313 320 329 329 330
317 315 315 314 316 316 317 318 318 319 319 319 318 318 313 313 312 314 313 317 314 314 312 311 312 313 314 313 313 314 314 313 313 314 314 315 314 314 313 310 314 324 326 327 328
317 316 315 315 316 316 316 317 318 318 318 317 316 316 313 313 311 313 315 313 313 312 312 311 313 312 312 312 312 313 313 313 312 313 313 312 314 314 312 309 311 315 318 323 326
316 316 315 315 316 316 316 317 317 317 316 315 316 313 310 310 310 315 314 314 313 311 312 310 312 311 312 311 312 313 311 313 312 312 312 313 315 313 309 310 310 309 309 311 317
315 316 315 315 315 316 316 317 316 315 315 314 314 313 310 309 310 311 313 312 312 313 312 312 311 311 312 311 310 311 311 311 312 311 312 312 313 310 307 308 308 307 306 306 309
315 316 315 315 315 316 316 316 314 314 314 312 312 311 310 310 310 310 312 312 310 311 310 311 311 311 310 310 312 310 311 312 311 310 312 311 311 310 309 308 307 307 306 305 308
313 316 315 315 314 315 316 314 314 313 314 312 311 310 308 310 310 311 312 311 311 310 311 311 312 312 311 309 310 311 310 311 311 310 312 310 310 310 309 308 307 307 307 306 306
312 316 315 314 314 315 314 311 310 310 313 311 310 310 310 309 310 309 311 310 311 311 311 312 311 311 311 310 310 309 310 310 311 311 310 311 310 309 308 308 307 307 307 306 308
313 316 315 314 314 315 313 310 309 309 309 310 309 309 310 310 310 310 309 310 311 310 311 311 312 311 312 311 310 309 309 308 310 310 310 309 305 308 309 309 307 307 307 307 306
314 316 315 314 315 314 312 310 310 308 309 311 309 310 311 310 311 310 310 309 310 310 310 312 311 311 311 310 309 309 310 310 310 307 306 305 303 305 305 307 307 307 305 306 306
315 316 315 314 314 314 312 312 311 309 311 309 308 309 310 309 308 309 309 309 310 310 310 312 310 310 311 311 309 310 309 310 309 310 308 309 305 304 307 309 308 306 305 306 304
314 315 314 313 314 313 311 312 310 311 311 309 308 312 311 309 310 308 308 308 309 309 308 309 308 309 310 309 309 308 309 309 307 307 307 305 304 304 308 308 308 307 307 306 305
315 315 314 312 313 312 313 313 312 311 308 309 308 311 309 310 310 308 308 308 309 309 310 309 310 308 309 309 309 309 307 310 309 309 308 306 306 305 308 308 307 307 307 305 305
315 315 313 312 311 311 313 311 310 307 310 309 309 310 309 310 310 309 307 308 307 308 309 309 311 308 308 309 309 308 307 309 309 312 308 305 308 309 307 306 305 308 307 306 306
313 314 311 312 310 312 312 312 308 308 309 310 310 310 309 309 310 309 308 309 307 306 309 309 310 308 308 309 309 309 309 309 308 299 308 306 305 307 306 305 307 308 307 307 306
311 311 308 311 312 312 310 309 308 308 309 308 310 309 309 309 310 308 308 308 308 307 307 308 311 309 308 308 308 308 307 309 308 304 303 306 307 305 306 305 305 309 308 306 305
303 305 302 310 312 312 311 309 308 313 309 309 309 310 308 309 308 308 309 308 308 307 306 309 310 310 308 308 309 308 307 308 309 308 308 308 306 303 306 306 305 305 308 306 304
299 304 300 309 312 311 309 308 308 313 313 313 309 309 309 309 310 308 309 308 307 306 307 310 309 311 309 307 307 308 308 308 310 309 308 309 306 308 306 305 305 305 308 305 304
297 298 299 304 310 311 308 309 311 315 314 314 313 310 308 309 309 309 308 310 307 307 307 310 310 310 311 308 308 309 308 308 308 306 307 308 306 306 307 307 306 308 307 306 304
298 304 301 301 301 310 309 309 310 313 314 314 313 311 309 309 309 311 312 312 311 308 310 311 312 311 310 308 308 310 308 307 308 309 308 308 307 308 307 309 308 307 307 306 304
299 301 298 307 304 309 308 308 310 313 313 313 314 312 310 310 312 311 312 312 311 310 309 310 309 309 312 312 309 309 309 308 308 309 309 308 307 307 307 309 309 307 307 306 305
298 300 299 302 300 306 310 309 310 311 313 314 313 313 312 311 310 312 312 311 311 311 309 309 305 309 310 311 311 310 309 309 308 308 307 305 306 305 306 306 308 307 308 307 306
296 297 301 303 303 305 306 307 309 309 306 308 312 313 313 313 311 309 309 309 310 310 310 310 309 307 309 310 308 309 309 308 308 307 308 308 308 305 306 307 308 307 307 307 305
Wind_Speed
27 22 23 23 26 23 22 21 19 18 16 22 15 15 16 20 21 14 6 6 4 4 7 8 8 11 2 4 3 2 3 4 5 3 4 4 5 3 1 7 4 3 3 12 32
27 22 23 21 23 24 23 22 19 19 16 28 18 11 11 13 16 14 25 12 12 3 8 9 4 11 4 4 3 3 4 9 6 4 6 5 6 7 5 5 4 5 10 27 32
27 24 26 24 22 22 23 23 21 20 16 22 27 14 5 9 4 9 34 23 13 7 3 10 7 6 3 1 4 4 5 5 1 5 11 9 4 4 9 3 7 12 11 15 22
28 25 25 26 23 22 23 23 23 22 21 19 22 23 11 4 7 8 24 37 21 6 6 7 4 5 3 3 4 3 6 0 3 2 5 10 7 5 6 5 9 14 19 14 10
27 26 25 27 24 23 23 22 23 22 22 22 20 16 12 0 7 3 19 27 32 16 10 3 3 5 5 2 6 5 4 3 3 2 1 8 6 6 6 4 7 16 16 11 14
26 26 25 25 24 24 23 21 20 21 22 22 21 21 8 5 8 9 24 23 24 22 16 6 5 4 3 8 10 5 5 4 3 2 1 6 3 4 6 7 9 15 12 11 15
25 27 25 26 25 25 22 22 20 19 20 20 22 23 4 11 4 16 28 19 23 29 14 21 14 4 2 4 9 6 5 0 5 4 3 5 1 6 4 8 11 10 9 10 15
23 29 28 26 25 24 23 23 20 18 19 19 22 15 5 14 22 13 17 15 24 26 13 26 16 3 4 4 3 7 6 4 4 7 3 3 6 9 7 10 10 10 8 9 10
26 30 30 26 26 25 24 23 20 18 18 20 17 7 5 5 14 16 15 13 17 20 13 13 10 5 3 4 1 4 5 5 3 7 3 4 5 3 9 9 8 9 9 9 8
25 31 32 32 28 26 25 24 20 20 18 18 8 4 5 5 6 15 18 14 6 8 5 5 5 5 3 4 12 4 4 4 6 7 4 4 5 4 4 8 9 8 8 9 9
27 33 34 32 30 32 34 28 10 4 14 7 11 4 5 10 11 12 21 13 6 5 7 4 5 18 9 6 6 4 6 8 2 4 5 8 6 10 7 5 8 9 8 8 10
29 39 38 36 36 37 38 6 9 12 7 12 5 4 6 5 4 5 17 8 7 7 7 5 17 13 9 8 10 5 5 5 2 1 4 2 10 9 7 8 9 10 9 9 5
34 44 46 44 40 39 32 17 24 30 6 3 5 13 4 4 4 12 12 5 7 8 11 8 5 9 13 6 12 6 6 6 6 3 1 3 7 6 8 6 7 9 8 6 10
41 47 49 47 37 33 26 25 17 15 4 6 7 6 6 5 3 4 14 6 6 15 9 5 4 16 8 12 8 7 4 8 11 5 4 4 5 5 7 9 8 8 8 8 8
50 53 54 52 25 20 40 26 7 8 5 11 6 11 9 8 8 4 5 2 9 8 7 5 8 9 7 15 8 5 6 7 5 4 5 2 3 8 2 4 8 9 6 7 8
51 56 56 41 26 33 23 20 6 4 6 8 8 9 12 6 3 5 5 2 3 5 5 3 1 4 6 2 6 8 7 8 5 4 0 6 6 5 4 6 4 4 7 7 8
45 52 54 35 16 42 26 9 4 6 6 8 7 12 15 7 5 5 11 5 7 9 7 2 2 2 3 7 4 6 6 2 2 1 6 1 4 9 5 4 8 10 9 9 8
53 56 45 25 38 44 21 8 5 7 9 5 8 17 12 10 2 8 9 8 7 3 6 6 3 7 4 6 8 6 7 6 7 4 4 2 7 6 4 1 10 9 9 8 8
43 44 28 34 43 39 13 13 9 7 7 8 11 19 5 8 8 6 13 18 8 8 7 6 3 2 2 1 8 6 4 5 7 3 4 4 5 6 3 5 7 10 10 9 8
22 12 16 31 45 26 15 15 5 8 8 14 7 7 7 18 6 9 16 13 11 9 2 4 5 3 2 1 2 4 8 3 2 4 3 4 4 5 8 11 8 9 9 8 7
3 4 4 25 38 14 19 13 12 1 13 7 7 6 8 14 7 11 16 4 16 9 5 4 4 1 2 6 8 3 4 2 5 5 5 3 6 7 8 13 15 10 10 11 9
3 4 4 29 12 13 14 9 4 4 4 3 5 5 14 13 6 11 13 7 15 11 9 2 5 4 5 3 3 2 6 5 5 6 2 3 5 2 2 8 14 12 11 8 8
2 2 6 8 9 16 7 6 1 3 4 3 3 3 4 11 5 5 7 1 3 14 13 7 1 4 4 2 2 5 4 4 5 4 5 5 6 3 2 6 7 13 11 10 10
2 2 3 3 2 15 18 17 10 2 3 4 4 4 6 8 3 8 4 1 3 5 8 8 4 7 9 7 7 6 7 6 5 3 4 6 4 4 6 8 8 9 11 11 10
2 2 1 5 1 12 17 14 7 6 1 3 2 5 7 5 4 6 4 2 5 0 5 6 7 5 3 1 3 6 11 12 8 19 8 18 10 7 10 10 13 10 11 13 12
2 1 1 2 4 7 16 14 20 5 6 3 4 6 2 6 7 7 8 4 5 2 4 2 2 4 1 3 3 1 9 17 20 19 13 4 7 7 7 7 9 13 15 15 15
2 1 2 2 2 3 3 6 12 9 3 4 6 4 4 4 4 4 4 7 10 9 7 8 6 4 6 4 3 5 13 15 17 14 22 14 20 7 5 11 14 14 17 17 16
Wind_Direction
199 198 202 205 198 195 185 190 183 186 189 177 168 172 175 189 200 203 202 137 140 157 145 142 111 115 212 272 284 41 82 214 242 201 206 210 121 55 121 98 50 31 127 159 158
199 193 201 200 199 200 189 188 185 183 174 181 161 156 170 173 188 216 211 178 163 127 151 138 134 148 185 220 267 130 141 215 208 198 212 167 129 135 105 102 68 59 74 136 155
198 199 198 199 198 194 196 187 186 180 170 165 164 166 140 128 143 237 209 194 185 161 164 177 163 157 125 311 218 211 170 253 273 322 156 157 126 146 122 185 179 156 148 145 155
196 196 195 203 194 198 198 188 189 186 176 161 157 181 185 165 186 240 209 204 206 213 209 188 164 118 123 219 237 304 247 193 246 310 155 157 137 158 151 200 197 162 158 155 165
196 194 195 199 193 193 194 192 187 188 184 178 170 160 144 188 269 269 181 196 211 214 204 167 120 113 171 274 288 223 226 118 295 68 187 129 148 170 143 159 118 141 156 160 169
194 193 193 194 189 193 195 196 193 193 194 191 181 167 139 206 224 193 177 173 189 198 233 202 169 172 172 233 206 243 205 170 216 144 12 121 134 130 201 147 110 149 166 173 176
193 193 190 193 190 185 187 194 192 194 187 189 175 169 176 217 231 185 170 185 201 184 179 219 174 115 105 257 199 228 121 251 189 188 182 111 30 204 200 158 142 159 179 185 192
198 194 191 187 186 183 183 186 183 188 183 178 172 157 219 235 240 184 185 186 192 188 191 196 183 166 164 262 141 155 115 167 244 156 250 139 235 238 190 153 174 178 195 192 210
206 197 186 184 184 180 180 172 166 173 169 164 156 155 246 195 180 206 191 181 175 196 219 186 167 177 208 157 77 184 185 164 193 189 154 164 223 242 169 160 183 194 203 211 221
202 202 186 186 180 173 168 155 145 149 151 157 161 110 239 193 185 183 185 169 153 142 122 158 156 169 173 152 204 174 182 170 168 206 181 185 235 192 185 156 191 213 220 209 205
205 198 188 183 178 173 153 129 129 168 197 186 172 212 127 152 157 167 174 170 131 139 176 204 161 203 192 148 232 201 203 182 166 163 136 201 224 221 217 184 193 212 231 219 192
203 194 185 183 179 171 157 183 175 151 164 255 196 209 112 124 124 176 167 150 152 172 152 171 212 183 171 189 232 210 215 199 4 102 135 187 250 245 210 213 193 199 214 217 229
191 191 182 182 175 169 171 199 161 141 140 194 184 198 165 164 183 181 158 180 153 176 187 183 203 156 177 193 215 195 187 199 165 166 86 99 292 235 239 223 190 217 206 197 205
190 187 181 181 166 167 179 170 185 207 129 179 185 194 145 174 186 171 178 171 172 193 176 190 217 184 171 198 168 203 199 158 141 127 197 146 261 281 237 223 207 213 187 165 127
188 183 178 179 162 173 183 177 171 163 150 172 174 153 147 161 146 229 141 218 184 177 162 189 173 170 186 197 166 190 140 149 137 107 102 222 105 269 111 183 207 198 178 133 120
188 181 172 172 159 174 179 188 142 122 230 175 148 166 145 162 179 127 153 205 206 121 60 151 202 141 181 100 149 136 92 44 49 83 130 222 155 275 212 193 184 137 152 145 114
173 170 169 163 163 169 157 154 117 195 171 169 180 166 156 147 142 168 169 187 174 149 148 93 71 281 156 85 28 113 109 56 27 5 220 332 160 242 252 179 187 159 151 147 129
177 173 168 163 160 162 158 153 179 197 178 135 148 149 169 132 187 171 141 194 246 169 129 152 201 181 184 168 174 167 151 145 174 183 220 12 221 251 226 194 139 140 134 119 116
177 164 154 147 162 163 152 186 191 176 177 130 123 154 146 176 135 139 181 197 211 197 154 150 181 64 65 21 156 205 171 154 102 17 79 213 280 301 122 86 121 138 136 139 137
164 139 135 150 161 165 170 192 193 171 127 133 148 186 159 173 134 178 175 198 207 186 164 181 107 23 323 14 352 187 153 102 19 131 234 267 266 230 204 186 169 164 154 152 135
69 95 18 154 158 169 194 186 189 107 140 143 150 154 169 173 157 175 186 222 198 181 134 125 95 270 132 205 173 159 183 160 121 143 165 163 252 223 213 195 186 176 170 160 150
38 122 335 152 158 193 196 161 234 134 60 126 131 128 176 165 140 187 188 203 180 156 167 121 112 138 209 277 270 321 196 153 170 203 215 157 263 219 310 209 172 171 162 151 142
58 56 358 157 169 182 155 200 103 147 143 132 123 139 130 162 149 166 166 6 152 164 164 175 119 92 16 346 307 221 223 176 108 84 194 144 256 326 342 109 143 148 154 153 149
71 78 22 45 360 173 172 192 191 18 109 114 120 98 114 161 158 173 130 43 52 151 136 114 142 159 182 192 141 198 190 185 139 133 171 223 192 227 207 171 156 150 150 149 151
32 47 342 172 157 175 173 182 151 169 44 113 45 163 149 140 104 150 118 110 28 82 100 129 183 157 13 17 184 166 182 180 193 220 176 234 192 218 203 191 179 157 148 154 161
101 127 73 57 136 134 185 195 187 142 150 182 134 180 76 147 181 171 125 160 175 16 120 76 222 120 45 356 58 65 215 192 207 224 231 108 251 193 191 120 163 173 170 174 175
76 61 124 69 66 105 153 194 197 142 30 73 144 117 121 134 86 79 102 139 153 155 161 149 137 127 227 153 71 328 216 196 213 215 210 215 230 167 179 185 184 176 184 184 176